Weather History for KLNS - March, 2013

Change the Weather History Date:

Friday, March 15, 2013

  Actual Average Record
Temperature  
Mean Temperature 40 °F -  
Max Temperature 53 °F 51 °F 80 °F (1990)
Min Temperature 27 °F 31 °F 11 °F (1993)
Degree Days  
Heating Degree Days 26    
Moisture  
Dew Point 20 °F    
Average Humidity 47    
Maximum Humidity 63    
Minimum Humidity 35    
Precipitation  
Precipitation 0.00 in - - ()
Sea Level Pressure  
Sea Level Pressure 29.90 in    
Wind  
Wind Speed 10 mph (West)    
Max Wind Speed 18 mph    
Max Gust Speed 30 mph    
Visibility 10 miles    
Events      
Averages and records for this station are not official NWS values.
T = Trace of Precipitation, MM = Missing Value Source: NWS Daily Summary

Daily Weather History Graph

Daily Weather History Graph

Search for Another Location

Airport or City:

Trip Planner

Search our weather history database for the weather conditions in past years. The results will help you decide how hot, cold, wet, or windy it might be!

Date:

Astronomy

Mar. 15, 2013 Rise Set
Actual Time 7:16 AM EDT 7:12 PM EDT
Civil Twilight 6:49 AM EDT 7:39 PM EDT
Nautical Twilight 6:17 AM EDT 8:10 PM EDT
Astronomical Twilight 5:45 AM EDT 8:42 PM EDT
Moon 9:05 AM EDT (3/15) 11:24 PM EDT (3/15)
Length of Visible Light 12h 50m
Length of Day
11h 55m
Waxing Crescent, 15% of the Moon is Illuminated
Mar 15
Waxing Crescent
Mar 19
First Quarter
Mar 27
Full
Apr 3
Last Quarter
Apr 10
New

Hourly Weather History & Observations

Time (EDT) Temp. Windchill Dew Point Humidity Pressure Visibility Wind Dir Wind Speed Gust Speed Precip Events Conditions
12:53 AM 30.0 °F 21.1 °F 10.9 °F 45% 30.05 in 10.0 mi NW 10.4 mph - N/A   Clear
1:53 AM 30.0 °F 21.7 °F 10.9 °F 45% 30.04 in 10.0 mi NW 9.2 mph - N/A   Clear
2:53 AM 27.0 °F 19.5 °F 10.9 °F 51% 30.05 in 10.0 mi NW 6.9 mph - N/A   Clear
3:53 AM 27.0 °F 23.0 °F 10.9 °F 51% 30.04 in 10.0 mi NW 3.5 mph - N/A   Clear
4:53 AM 28.9 °F 22.8 °F 10.0 °F 45% 30.03 in 10.0 mi West 5.8 mph - N/A   Clear
6:53 AM 28.0 °F - 10.9 °F 49% 30.02 in 10.0 mi Calm Calm - N/A   Clear
7:53 AM 28.0 °F 24.2 °F 12.9 °F 53% 30.02 in 10.0 mi SW 3.5 mph - N/A   Clear
8:53 AM 32.0 °F 26.4 °F 17.1 °F 54% 30.00 in 10.0 mi SW 5.8 mph - N/A   Scattered Clouds
9:53 AM 35.1 °F 28.6 °F 19.9 °F 54% 29.99 in 10.0 mi WSW 8.1 mph - N/A   Clear
10:53 AM 39.0 °F 31.0 °F 19.9 °F 46% 29.95 in 10.0 mi WSW 13.8 mph - N/A   Overcast
11:53 AM 39.9 °F 31.1 °F 19.0 °F 43% 29.93 in 10.0 mi WSW 17.3 mph - N/A   Overcast
12:53 PM 43.0 °F 35.1 °F 19.9 °F 40% 29.89 in 10.0 mi WSW 17.3 mph 23.0 mph N/A   Overcast
1:53 PM 45.0 °F 37.4 °F 21.0 °F 39% 29.86 in 10.0 mi West 18.4 mph 25.3 mph N/A   Mostly Cloudy
2:53 PM 50.0 °F - 24.1 °F 36% 29.80 in 10.0 mi West 17.3 mph 23.0 mph N/A   Overcast
3:53 PM 52.0 °F - 25.0 °F 35% 29.77 in 10.0 mi West 17.3 mph 25.3 mph N/A   Partly Cloudy
4:53 PM 52.0 °F - 26.1 °F 37% 29.75 in 10.0 mi West 18.4 mph 29.9 mph N/A   Overcast
5:53 PM 52.0 °F - 28.0 °F 40% 29.74 in 10.0 mi West 15.0 mph 24.2 mph N/A   Overcast
6:53 PM 50.0 °F - 28.9 °F 44% 29.75 in 10.0 mi West 17.3 mph - N/A   Mostly Cloudy
7:53 PM 46.0 °F 41.0 °F 30.0 °F 54% 29.78 in 10.0 mi WNW 10.4 mph - N/A   Mostly Cloudy
8:53 PM 44.1 °F 41.5 °F 28.9 °F 55% 29.79 in 10.0 mi WNW 4.6 mph - N/A   Clear
9:53 PM 44.1 °F 42.5 °F 28.0 °F 53% 29.80 in 10.0 mi WNW 3.5 mph - N/A   Clear
10:53 PM 39.9 °F 36.7 °F 28.0 °F 63% 29.81 in 10.0 mi WNW 4.6 mph - N/A   Overcast
11:53 PM 44.1 °F 40.1 °F 28.9 °F 55% 29.79 in 10.0 mi NW 6.9 mph - N/A   Overcast